User: anonymous   Login
Location: Unspecified
(0.0000°N, 0.0000°E)
Time: 08:42:44
(UTC+00:00)
Language:

GONETS M 06 - Orbit

View from above orbital plane
View from above orbital plane
View from above satellite
View from above satellite

Ground track
Ground track

The orbit data is extracted from the following two-line orbital elements,

1 39250U 13048B   17293.68040549  .00000010  00000-0  00000+0 0  9993
2 39250  82.4859 154.6644 0018061 302.6695  57.2639 12.42920427186307
Epoch (UTC): 20 October 2017 16:19:47
Eccentricity: 0.0018061
inclination: 82.4859°
perigee height: 1480 km
apogee height: 1508 km
right ascension of ascending node: 154.6644°
argument of perigee: 302.6695°
revolutions per day: 12.42920427
mean anomaly at epoch: 57.2639°
orbit number at epoch: 18630

The dashed part of the orbit path shows where the satellite is in the earth's shadow,  

DLR